Retour au catalogue

STARLINK-3798

ActifCommunicationsVLEO
NORAD 52371·PAYLOAD·🇺🇸 United States

Lancé Apr 29, 2022 depuis Cape Canaveral Space Force Station

Loading…

Prochains Passages (prochaines 24 heures)

TLE

FraisSource: CelesTrak SupGP

Époque: Sep 14, 2026, 20:16 UTC

1 52371C 22045AS  26257.84493056  .00043037  00000+0  13843-2 0  2576
2 52371  53.1606  48.0916 0001233  75.1029 102.1907 15.31674010    11

Suivez STARLINK-3798 en temps réel avec AllMySat

Download on the App Store